When you browse on this site, cookies collect data to enhance your experience and personalize the content and advertising you see.
Visit our Privacy Policy to learn more. By continuing to use the site, you agree to this use of cookies and data.
  • In Österreich
  • Länderverzeichnis
  • Für 7 Tage
  • Wassertemperatur
  • Satellitenkarten
  • Wetterkarte
  • News
  • Widgets
  • user-avatar
    Anmelden

    Stündliche Wetter Crofton

    Heute, 22 April, Montag

    Zeit Temperatur Niederschläge Wind Luftdruck Luftfeuchtigkeit
    00:00 +14°C° 0 mm 3 m/S 761 mmHg 72%
    01:00 +13°C° 0 mm 4 m/S 761 mmHg 73%
    02:00 +13°C° 0 mm 3 m/S 761 mmHg 75%
    03:00 +12°C° 0 mm 3 m/S 761 mmHg 77%
    04:00 +12°C° 0 mm 3 m/S 761 mmHg 78%
    05:00 +12°C° 0 mm 4 m/S 761 mmHg 78%
    06:00 +12°C° 0 mm 4 m/S 762 mmHg 78%
    07:00 +12°C° 0 mm 4 m/S 762 mmHg 78%
    08:00 +13°C° 0 mm 4 m/S 762 mmHg 72%
    09:00 +15°C° 0 mm 5 m/S 762 mmHg 67%
    10:00 +16°C° 0 mm 5 m/S 762 mmHg 61%
    11:00 +17°C° 0 mm 5 m/S 762 mmHg 57%
    12:00 +20°C° 0 mm 4 m/S 761 mmHg 53%
    13:00 +21°C° 0 mm 4 m/S 761 mmHg 50%
    14:00 +21°C° 0 mm 4 m/S 760 mmHg 48%
    15:00 +22°C° 0 mm 4 m/S 760 mmHg 47%
    16:00 +22°C° 0 mm 4 m/S 760 mmHg 46%
    17:00 +21°C° 0 mm 3 m/S 760 mmHg 49%
    18:00 +20°C° 0 mm 3 m/S 760 mmHg 52%
    19:00 +19°C° 0 mm 2 m/S 760 mmHg 55%
    20:00 +18°C° 0 mm 2 m/S 760 mmHg 58%
    21:00 +18°C° 0 mm 2 m/S 760 mmHg 61%
    22:00 +17°C° 0 mm 2 m/S 761 mmHg 64%
    23:00 +16°C° 0 mm 2 m/S 761 mmHg 65%

    Morgen, 23 April, Dienstag

    Zeit Temperatur Niederschläge Wind Luftdruck Luftfeuchtigkeit
    00:00 +16°C° 0 mm 2 m/S 761 mmHg 67%
    01:00 +15°C° 0 mm 2 m/S 761 mmHg 69%
    02:00 +15°C° 0 mm 2 m/S 761 mmHg 70%
    03:00 +15°C° 0 mm 2 m/S 760 mmHg 71%
    04:00 +15°C° 0 mm 2 m/S 760 mmHg 72%
    05:00 +15°C° 0 mm 1 m/S 760 mmHg 70%
    06:00 +16°C° 0 mm 1 m/S 760 mmHg 69%
    07:00 +16°C° 0 mm 1 m/S 761 mmHg 67%
    08:00 +19°C° 0 mm 1 m/S 760 mmHg 61%
    09:00 +21°C° 0 mm 1 m/S 760 mmHg 55%
    10:00 +23°C° 0 mm 1 m/S 760 mmHg 48%
    11:00 +25°C° 0 mm 1 m/S 759 mmHg 45%
    12:00 +26°C° 0 mm 2 m/S 759 mmHg 42%
    13:00 +27°C° 0 mm 2 m/S 758 mmHg 38%
    14:00 +27°C° 0 mm 2 m/S 758 mmHg 38%
    15:00 +28°C° 0 mm 3 m/S 757 mmHg 38%
    16:00 +28°C° 0 mm 3 m/S 756 mmHg 38%
    17:00 +27°C° 0 mm 3 m/S 756 mmHg 43%
    18:00 +25°C° 0 mm 4 m/S 756 mmHg 48%
    19:00 +23°C° 0 mm 4 m/S 755 mmHg 53%
    20:00 +22°C° 0.1 mm 4 m/S 755 mmHg 55%
    21:00 +21°C° 0.1 mm 4 m/S 755 mmHg 57%
    22:00 +21°C° 0.1 mm 4 m/S 755 mmHg 60%
    23:00 +21°C° 0 mm 4 m/S 755 mmHg 61%

    übermorgen, 24 April, Mittwoch

    Zeit Temperatur Niederschläge Wind Luftdruck Luftfeuchtigkeit
    00:00 +21°C° 0 mm 3 m/S 754 mmHg 62%
    01:00 +20°C° 0 mm 3 m/S 754 mmHg 63%
    02:00 +20°C° 0 mm 3 m/S 753 mmHg 66%
    03:00 +20°C° 0 mm 3 m/S 753 mmHg 68%
    04:00 +19°C° 0 mm 3 m/S 753 mmHg 70%
    05:00 +19°C° 0.2 mm 4 m/S 753 mmHg 72%
    06:00 +19°C° 0.2 mm 4 m/S 754 mmHg 73%
    07:00 +17°C° 0.2 mm 5 m/S 754 mmHg 75%
    08:00 +17°C° 0 mm 5 m/S 755 mmHg 70%
    09:00 +17°C° 0 mm 5 m/S 755 mmHg 65%
    10:00 +16°C° 0 mm 5 m/S 755 mmHg 60%
    11:00 +19°C° 0 mm 5 m/S 755 mmHg 53%
    12:00 +20°C° 0 mm 5 m/S 755 mmHg 46%
    13:00 +21°C° 0 mm 5 m/S 755 mmHg 39%
    14:00 +21°C° 0 mm 5 m/S 755 mmHg 38%
    15:00 +22°C° 0 mm 5 m/S 754 mmHg 36%
    16:00 +22°C° 0 mm 5 m/S 754 mmHg 35%
    17:00 +21°C° 0 mm 5 m/S 755 mmHg 38%
    18:00 +19°C° 0 mm 4 m/S 755 mmHg 40%
    19:00 +18°C° 0 mm 4 m/S 756 mmHg 42%
    20:00 +18°C° 0 mm 4 m/S 756 mmHg 42%
    21:00 +17°C° 0 mm 4 m/S 757 mmHg 42%
    22:00 +15°C° 0 mm 4 m/S 757 mmHg 42%
    23:00 +14°C° 0 mm 4 m/S 758 mmHg 41%

    25 April, Donnerstag

    Zeit Temperatur Niederschläge Wind Luftdruck Luftfeuchtigkeit
    00:00 +13°C° 0 mm 4 m/S 758 mmHg 41%
    01:00 +12°C° 0 mm 4 m/S 758 mmHg 41%
    02:00 +11°C° 0 mm 3 m/S 758 mmHg 40%
    03:00 +11°C° 0 mm 3 m/S 758 mmHg 40%
    04:00 +10°C° 0 mm 3 m/S 758 mmHg 40%
    05:00 +11°C° 0 mm 3 m/S 759 mmHg 40%
    06:00 +12°C° 0 mm 2 m/S 759 mmHg 40%
    07:00 +12°C° 0 mm 2 m/S 759 mmHg 40%
    08:00 +14°C° 0 mm 2 m/S 759 mmHg 36%
    09:00 +16°C° 0 mm 2 m/S 759 mmHg 31%
    10:00 +19°C° 0 mm 1 m/S 759 mmHg 27%
    11:00 +21°C° 0 mm 1 m/S 759 mmHg 26%
    12:00 +22°C° 0 mm 1 m/S 758 mmHg 25%
    13:00 +24°C° 0 mm 1 m/S 758 mmHg 24%
    14:00 +24°C° 0 mm 1 m/S 757 mmHg 24%
    15:00 +24°C° 0 mm 1 m/S 757 mmHg 25%
    16:00 +24°C° 0 mm 2 m/S 756 mmHg 25%
    17:00 +23°C° 0 mm 2 m/S 756 mmHg 30%
    18:00 +20°C° 0 mm 2 m/S 756 mmHg 34%
    19:00 +19°C° 0 mm 3 m/S 756 mmHg 39%
    20:00 +18°C° 0 mm 3 m/S 756 mmHg 40%
    21:00 +18°C° 0 mm 3 m/S 756 mmHg 41%
    22:00 +17°C° 0 mm 3 m/S 756 mmHg 41%
    23:00 +16°C° 0.3 mm 3 m/S 755 mmHg 48%

    26 April, Freitag

    Zeit Temperatur Niederschläge Wind Luftdruck Luftfeuchtigkeit
    00:00 +16°C° 0.3 mm 3 m/S 755 mmHg 56%
    01:00 +14°C° 0.3 mm 3 m/S 755 mmHg 63%
    02:00 +14°C° 1.7 mm 3 m/S 754 mmHg 71%
    03:00 +15°C° 1.7 mm 2 m/S 754 mmHg 80%
    04:00 +14°C° 1.7 mm 1 m/S 753 mmHg 89%
    05:00 +15°C° 1.5 mm 1 m/S 753 mmHg 89%
    06:00 +15°C° 1.5 mm 1 m/S 753 mmHg 90%
    07:00 +15°C° 1.5 mm 1 m/S 753 mmHg 91%
    08:00 +16°C° 0.1 mm 1 m/S 753 mmHg 82%
    09:00 +18°C° 0.1 mm 2 m/S 753 mmHg 74%
    10:00 +19°C° 0.1 mm 3 m/S 752 mmHg 66%
    11:00 +20°C° 0.1 mm 4 m/S 752 mmHg 61%
    12:00 +21°C° 0.1 mm 5 m/S 752 mmHg 56%
    13:00 +22°C° 0.1 mm 6 m/S 752 mmHg 51%
    14:00 +22°C° 0.1 mm 6 m/S 752 mmHg 48%
    15:00 +22°C° 0.1 mm 6 m/S 752 mmHg 45%
    16:00 +22°C° 0.1 mm 6 m/S 752 mmHg 42%
    17:00 +21°C° 0 mm 6 m/S 753 mmHg 42%
    18:00 +20°C° 0 mm 6 m/S 753 mmHg 43%
    19:00 +19°C° 0 mm 5 m/S 754 mmHg 44%
    20:00 +17°C° 0 mm 6 m/S 755 mmHg 42%
    21:00 +16°C° 0 mm 6 m/S 756 mmHg 40%
    22:00 +15°C° 0 mm 7 m/S 757 mmHg 39%
    23:00 +14°C° 0 mm 6 m/S 758 mmHg 36%

    27 April, Samstag

    Zeit Temperatur Niederschläge Wind Luftdruck Luftfeuchtigkeit
    00:00 +12°C° 0 mm 5 m/S 758 mmHg 34%
    01:00 +10°C° 0 mm 5 m/S 759 mmHg 32%
    02:00 +10°C° 0 mm 5 m/S 759 mmHg 33%
    03:00 +9°C° 0 mm 5 m/S 759 mmHg 35%
    04:00 +9°C° 0 mm 5 m/S 760 mmHg 37%
    05:00 +9°C° 0 mm 5 m/S 760 mmHg 37%
    06:00 +9°C° 0 mm 6 m/S 760 mmHg 36%
    07:00 +9°C° 0 mm 6 m/S 761 mmHg 36%
    08:00 +10°C° 0 mm 6 m/S 761 mmHg 34%
    09:00 +11°C° 0 mm 6 m/S 761 mmHg 33%
    10:00 +13°C° 0 mm 6 m/S 761 mmHg 31%
    11:00 +14°C° 0 mm 5 m/S 761 mmHg 30%
    12:00 +15°C° 0 mm 5 m/S 760 mmHg 28%
    13:00 +16°C° 0 mm 5 m/S 760 mmHg 26%
    14:00 +18°C° 0 mm 4 m/S 760 mmHg 27%
    15:00 +18°C° 0 mm 4 m/S 759 mmHg 28%
    16:00 +18°C° 0 mm 3 m/S 759 mmHg 29%
    17:00 +17°C° 0 mm 3 m/S 759 mmHg 32%
    18:00 +16°C° 0 mm 2 m/S 759 mmHg 35%
    19:00 +15°C° 0 mm 1 m/S 760 mmHg 37%
    20:00 +15°C° 0 mm 1 m/S 760 mmHg 38%
    21:00 +15°C° 0 mm 1 m/S 760 mmHg 38%
    22:00 +14°C° 0 mm 1 m/S 760 mmHg 39%
    23:00 +14°C° 0 mm 1 m/S 760 mmHg 40%
    Mehr zeigen